Date String (YYYY-MM-DD hh:mm:ss) UTC,Instrument flags,Ambient pressure (hPa),Sample flow (lpm),Bypass flow (lpm),Sample temperature (°C),Ambient temperature (°C),ASC tube jacket temperature (°C),LED temperature (°C),Box temperature (°C),Sample RH (%),Span deviation,Mass concentration (μg/m³),Mass concentration (μg/m³),Mass concentration (μg/m³)
DateTimeUTC,F1_M11,P_M11,Q1_M11,Q2_M11,T1_M11,T2_M11,T3_M11,T4_M11,T5_M11,U1_M11,ZSPAN_M11,X0_M11,X2_M11,X1_M11
2022-03-20 05:00:00,,0822.1,5.00,0.00,25.9,24.8,00.0,35.0,27.6,08.4,0000.0,0011.75,0004.93,0003.30
2022-03-20 05:01:00,,0822.1,4.98,0.00,25.9,24.8,00.0,35.0,27.5,08.3,0000.0,0011.66,0004.89,0003.30
2022-03-20 05:02:00,,0822.1,5.02,0.00,25.9,24.8,00.0,35.0,27.5,08.4,0000.0,0012.15,0004.88,0003.29
2022-03-20 05:03:00,,0822.1,5.00,0.00,25.9,24.8,00.0,35.0,27.5,08.4,0000.0,0012.68,0004.97,0003.29
2022-03-20 05:04:00,,0822.1,4.99,0.00,25.8,24.8,00.0,35.0,27.5,08.4,0000.0,0012.52,0004.97,0003.29
2022-03-20 05:05:00,,0822.1,5.01,0.00,25.8,24.8,00.0,34.9,27.5,08.3,0000.0,0012.51,0004.97,0003.31
2022-03-20 05:06:00,,0822.1,4.99,0.00,25.8,24.8,00.0,34.9,27.5,08.3,0000.0,0012.06,0005.03,0003.33
2022-03-20 05:07:00,,0822.1,5.01,0.00,25.8,24.8,00.0,34.9,27.5,08.3,0000.0,0012.55,0005.06,0003.33
2022-03-20 05:08:00,,0822.1,5.00,0.00,25.8,24.8,00.0,34.9,27.5,08.4,0000.0,0012.85,0005.10,0003.33
2022-03-20 05:09:00,,0822.1,5.00,0.00,25.8,24.8,00.0,34.9,27.5,08.4,0000.0,0013.06,0005.15,0003.35
2022-03-20 05:10:00,,0822.1,5.00,0.00,25.8,24.7,00.0,34.9,27.4,08.4,-000.4,0013.29,0005.20,0003.35
2022-03-20 05:11:00,,0822.1,5.01,0.00,25.7,24.7,00.0,34.9,27.4,08.3,-000.0,0013.81,0005.24,0003.36
2022-03-20 05:12:00,,0822.1,5.00,0.00,25.7,24.7,00.0,34.9,27.4,08.3,0000.0,0013.95,0005.19,0003.36
2022-03-20 05:13:00,,0822.1,5.03,0.00,25.7,24.7,00.0,34.9,27.4,08.2,-000.4,0013.72,0005.18,0003.35
2022-03-20 05:14:00,,0822.1,4.99,0.00,25.7,24.7,00.0,34.8,27.4,08.2,-001.2,0013.08,0005.11,0003.36
2022-03-20 05:15:00,,0822.1,4.99,0.00,25.7,24.7,00.0,34.8,27.4,08.3,0000.0,0012.95,0005.07,0003.37
2022-03-20 05:16:00,,0822.1,5.00,0.00,25.7,24.7,00.0,34.8,27.4,08.3,0000.0,0012.83,0005.09,0003.37
2022-03-20 05:17:00,,0822.1,5.01,0.00,25.7,24.7,00.0,34.8,27.4,08.2,0000.0,0012.54,0005.07,0003.36
2022-03-20 05:18:00,,0822.1,4.98,0.00,25.7,24.7,00.0,34.8,27.4,08.3,0000.0,0011.71,0005.09,0003.35
2022-03-20 05:19:00,,0822.1,5.01,0.00,25.7,24.7,00.0,34.8,27.4,08.3,0000.0,0011.91,0005.10,0003.36
2022-03-20 05:20:00,,0822.1,4.99,0.00,25.7,24.7,00.0,34.8,27.4,08.4,0000.0,0012.43,0005.13,0003.36
2022-03-20 05:21:00,,0822.1,4.99,0.00,25.7,24.7,00.0,34.8,27.4,08.4,0000.0,0012.41,0005.16,0003.37
2022-03-20 05:22:00,,0822.1,5.01,0.00,25.7,24.7,00.0,34.8,27.4,08.7,0000.0,0012.22,0005.15,0003.37
2022-03-20 05:23:00,,0822.1,4.99,0.00,25.7,24.6,00.0,34.8,27.3,09.0,0000.0,0011.92,0005.15,0003.37
2022-03-20 05:24:00,,0822.0,4.99,0.00,25.7,24.6,00.0,34.8,27.3,08.8,0000.0,0012.56,0005.22,0003.37
2022-03-20 05:25:00,,0822.1,5.01,0.00,25.7,24.6,00.0,34.8,27.4,08.6,0000.0,0012.76,0005.27,0003.39
2022-03-20 05:26:00,,0822.0,4.99,0.00,25.6,24.6,00.0,34.7,27.4,08.5,0000.0,0012.77,0005.30,0003.40
2022-03-20 05:27:00,,0822.0,4.99,0.00,25.6,24.6,00.0,34.7,27.3,08.4,0000.0,0012.67,0005.24,0003.39
2022-03-20 05:28:00,,0822.0,4.99,0.00,25.6,24.6,00.0,34.7,27.3,08.4,0000.0,0012.73,0005.24,0003.39
2022-03-20 05:29:00,,0822.1,5.00,0.00,25.6,24.6,00.0,34.7,27.3,08.3,0000.0,0012.69,0005.21,0003.39
2022-03-20 05:30:00,,0822.0,4.99,0.00,25.6,24.6,00.0,34.7,27.3,08.2,0000.0,0012.65,0005.21,0003.38
2022-03-20 05:31:00,,0822.0,5.00,0.00,25.6,24.5,00.0,34.7,27.3,08.2,0000.0,0012.62,0005.18,0003.37
2022-03-20 05:32:00,,0822.0,4.99,0.00,25.6,24.5,00.0,34.7,27.3,08.2,0000.0,0012.61,0005.13,0003.36
2022-03-20 05:33:00,,0822.0,5.00,0.00,25.5,24.5,00.0,34.7,27.2,08.2,0000.0,0012.57,0005.12,0003.35
2022-03-20 05:34:00,,0822.1,4.98,0.00,25.5,24.5,00.0,34.7,27.3,08.2,0000.0,0012.66,0005.11,0003.35
2022-03-20 05:35:00,,0822.1,5.02,0.00,25.5,24.5,00.0,34.6,27.3,08.4,0000.0,0012.26,0005.07,0003.34
2022-03-20 05:36:00,,0822.0,4.99,0.00,25.5,24.5,00.0,34.6,27.2,08.2,0000.0,0012.28,0005.04,0003.31
2022-03-20 05:37:00,,0822.0,4.99,0.00,25.5,24.5,00.0,34.6,27.2,08.2,0000.0,0012.41,0004.99,0003.29
2022-03-20 05:38:00,,0822.0,5.01,0.00,25.5,24.5,00.0,34.6,27.2,08.2,0000.0,0013.58,0005.03,0003.28
2022-03-20 05:39:00,,0821.9,4.99,0.00,25.5,24.5,00.0,34.6,27.2,08.3,0000.0,0013.72,0005.06,0003.27
2022-03-20 05:40:00,,0821.9,5.02,0.00,25.5,24.5,00.0,34.6,27.2,08.3,0000.0,0013.66,0005.06,0003.27
2022-03-20 05:41:00,,0822.0,4.99,0.00,25.5,24.5,00.0,34.6,27.2,08.3,0000.0,0013.52,0005.08,0003.26
2022-03-20 05:42:00,,0822.1,5.01,0.00,25.5,24.4,00.0,34.6,27.2,08.3,0000.0,0012.97,0005.08,0003.26
2022-03-20 05:43:00,,0822.0,4.99,0.00,25.4,24.4,00.0,34.6,27.1,08.2,0000.0,0012.85,0005.08,0003.27
2022-03-20 05:44:00,,0821.9,5.01,0.00,25.4,24.4,00.0,34.5,27.1,08.2,0000.1,0012.89,0005.11,0003.27
2022-03-20 05:45:00,,0821.8,4.99,0.00,25.4,24.4,00.0,34.5,27.2,08.0,0000.0,0012.91,0005.13,0003.27
2022-03-20 05:46:00,,0821.8,5.00,0.00,25.4,24.4,00.0,34.5,27.2,07.9,0000.0,0012.95,0005.15,0003.26
2022-03-20 05:47:00,,0821.8,5.00,0.00,25.4,24.4,00.0,34.5,27.2,07.8,0000.0,0012.86,0005.12,0003.26
2022-03-20 05:48:00,,0821.8,4.99,0.00,25.4,24.4,00.0,34.5,27.1,07.8,0000.0,0012.41,0005.05,0003.24
2022-03-20 05:49:00,,0821.9,5.01,0.00,25.4,24.4,00.0,34.5,27.1,07.8,0000.0,0011.28,0004.96,0003.22
2022-03-20 05:50:00,,0821.8,4.99,0.00,25.4,24.4,00.0,34.5,27.1,07.8,0000.0,0011.09,0004.95,0003.21
2022-03-20 05:51:00,,0821.9,5.02,0.00,25.4,24.4,00.0,34.5,27.1,07.7,0000.0,0010.99,0004.93,0003.21
2022-03-20 05:52:00,,0821.8,4.99,0.00,25.4,24.4,00.0,34.5,27.1,07.7,0000.0,0010.96,0004.88,0003.19
2022-03-20 05:53:00,,0821.8,5.01,0.00,25.4,24.4,00.0,34.5,27.1,07.7,0000.0,0010.80,0004.79,0003.17
2022-03-20 05:54:00,,0821.8,5.00,0.00,25.4,24.4,00.0,34.5,27.1,07.7,0000.0,0011.00,0004.83,0003.14
2022-03-20 05:55:00,,0821.8,4.99,0.00,25.4,24.4,00.0,34.5,27.1,07.7,0000.0,0011.00,0004.83,0003.13
2022-03-20 05:56:00,,0821.8,5.02,0.00,25.4,24.4,00.0,34.4,27.0,07.8,0000.0,0010.90,0004.80,0003.11
2022-03-20 05:57:00,,0821.8,5.00,0.00,25.3,24.4,00.0,34.4,27.0,07.8,0000.0,0010.82,0004.76,0003.09
2022-03-20 05:58:00,,0821.8,4.99,0.00,25.3,24.4,00.0,34.4,27.0,07.7,0000.0,0010.93,0004.72,0003.06
2022-03-20 05:59:00,,0821.8,5.01,0.00,25.3,24.3,00.0,34.4,27.0,07.7,0000.0,0011.08,0004.76,0003.05
